Location: Unspecified
(0.0000°N, 0.0000°E)
Time: 13:41:13
(UTC+00:00)

S-56A Canister/Altair - All Passes

Search period start: 23 January 2018 00:00
Search period end: 02 February 2018 00:00
Orbit: 634 x 2499 km, 38.9° (Epoch: 22 January)

Date Brightness Start Highest point End Pass type
(mag) Time Alt. Az. Time Alt. Az. Time Alt. Az.
23 Jan - 02:41:53 10° SSW 02:52:29 27° SE 03:04:13 10° E visible
23 Jan - 04:45:05 10° SW 04:59:44 78° SE 05:14:12 10° NE visible
23 Jan - 06:53:07 10° WSW 07:06:38 39° NW 07:18:25 10° NNE daylight
23 Jan - 15:38:37 10° N 15:41:19 15° NE 15:43:51 10° ENE daylight
23 Jan - 17:40:49 10° WNW 17:45:02 43° SW 17:49:37 10° SSE daylight
24 Jan - 02:09:37 10° S 02:19:02 23° SE 02:29:39 10° E visible
24 Jan - 04:12:05 10° SW 04:26:13 70° SE 04:40:56 10° ENE visible
24 Jan - 06:19:12 10° WSW 06:33:12 45° NW 06:45:50 10° NNE daylight
24 Jan - 08:36:35 10° NW 08:40:52 12° NW 08:44:53 10° NNW daylight
24 Jan - 15:06:53 10° N 15:08:44 12° NNE 15:10:30 10° NE daylight
24 Jan - 17:08:14 10° WNW 17:12:42 58° SW 17:17:14 10° SE daylight
25 Jan - 01:37:36 10° S 01:45:37 19° SE 01:54:45 10° ESE visible
25 Jan - 03:39:13 10° SW 03:52:43 62° SE 04:07:29 10° ENE visible
25 Jan - 05:45:30 10° WSW 05:59:43 51° NW 06:13:07 10° NNE visible
25 Jan - 08:00:18 10° WNW 08:07:24 15° NW 08:13:54 10° N daylight
25 Jan - 16:35:39 10° NW 16:40:22 80° SW 16:44:50 10° SE daylight
26 Jan - 01:05:57 10° S 01:12:15 15° SE 01:19:22 10° ESE visible
26 Jan - 03:06:29 10° SSW 03:19:16 55° SE 03:33:52 10° ENE visible
26 Jan - 05:11:59 10° WSW 05:26:12 58° NW 05:40:17 10° NE visible
26 Jan - 07:24:54 10° WNW 07:33:54 18° NW 07:42:07 10° N daylight
26 Jan - 16:03:04 10° NW 16:08:02 77° NE 16:12:27 10° SE daylight
27 Jan - 00:35:06 10° SSE 00:38:56 12° SE 00:43:05 10° SE visible
27 Jan - 02:33:53 10° SSW 02:45:52 48° SE 03:00:06 10° ENE visible
27 Jan - 04:38:39 10° WSW 04:52:41 65° NW 05:07:17 10° NE visible
27 Jan - 06:50:01 10° W 07:00:22 22° NW 07:09:59 10° N daylight
27 Jan - 15:30:28 10° NW 15:35:41 58° NE 15:40:02 10° ESE daylight
27 Jan - 17:38:05 10° SW 17:39:18 11° SW 17:40:33 10° SSW daylight
28 Jan - 02:01:25 10° SSW 02:12:32 42° SE 02:26:08 10° ENE visible
28 Jan - 04:05:29 10° SW 04:19:09 73° NW 04:34:11 10° NE visible
28 Jan - 06:15:30 10° W 06:26:49 25° NW 06:37:35 10° NNE daylight
28 Jan - 14:57:51 10° NNW 15:03:16 45° NE 15:07:37 10° ESE daylight
28 Jan - 17:04:14 10° WSW 17:06:49 15° SW 17:09:20 10° S daylight
29 Jan - 01:29:05 10° SSW 01:39:16 35° SE 01:51:59 10° ENE visible
29 Jan - 03:32:28 10° SW 03:45:39 81° NW 04:00:56 10° NE visible
29 Jan - 05:41:18 10° W 05:53:14 29° NW 06:05:01 10° NNE visible
29 Jan - 14:25:11 10° NNW 14:30:48 36° NE 14:35:09 10° ESE daylight
29 Jan - 16:30:53 10° W 16:34:23 20° SW 16:37:40 10° S daylight
30 Jan - 00:56:55 10° SSW 01:06:05 30° SE 01:17:37 10° E visible
30 Jan - 02:59:35 10° SW 03:12:12 89° NW 03:27:33 10° NE visible
30 Jan - 05:07:22 10° W 05:19:39 33° NW 05:32:16 10° NNE visible
30 Jan - 13:52:29 10° NNW 13:58:14 30° NE 14:02:38 10° E daylight
30 Jan - 15:57:41 10° W 16:02:00 27° SW 16:05:48 10° SSE daylight
31 Jan - 00:24:57 10° S 00:32:58 24° SE 00:43:01 10° E visible
31 Jan - 02:26:51 10° SW 02:38:49 82° SE 02:54:03 10° NE visible
31 Jan - 04:33:41 10° W 04:46:04 38° NW 04:59:23 10° NNE visible
31 Jan - 06:51:34 10° NW 06:55:24 11° NNW 06:59:08 10° NNW daylight
31 Jan - 13:19:45 10° NNW 13:25:36 26° NNE 13:30:03 10° E daylight
31 Jan - 15:24:32 10° WNW 15:29:39 36° SW 15:33:52 10° SSE daylight
31 Jan - 23:53:13 10° S 23:59:55 19° SE 00:08:07 10° E night (unlit)
01 Feb - 01:54:14 10° SW 02:05:30 73° SE 02:20:24 10° NE visible
01 Feb - 04:00:14 10° WSW 04:12:30 42° NW 04:26:22 10° NNE visible
01 Feb - 06:15:20 10° NW 06:21:38 13° NNW 06:27:49 10° N daylight
01 Feb - 12:46:57 10° NNW 12:52:53 23° NNE 12:57:26 10° E daylight
01 Feb - 14:51:25 10° WNW 14:57:18 49° SW 15:01:50 10° SSE daylight
01 Feb - 23:21:53 10° S 23:26:54 15° SE 23:32:49 10° ESE night (unlit)
